TimeCST,TemperatureF,Dew PointF,Humidity,Sea Level PressureIn,VisibilityMPH,Wind Direction,Wind SpeedMPH,Gust SpeedMPH,PrecipitationIn,Events,Conditions,WindDirDegrees,DateUTC
12:15 AM,55.0,43.3,65,30.17,10.0,South,6.9,-,N/A,,Overcast,190,2012-11-18 06:15:00
12:35 AM,54.9,43.7,66,30.15,10.0,South,5.8,-,N/A,,Overcast,180,2012-11-18 06:35:00
1:15 AM,53.6,43.7,69,30.14,10.0,South,5.8,-,N/A,,Scattered Clouds,170,2012-11-18 07:15:00
1:35 AM,53.6,43.9,70,30.14,10.0,South,6.9,-,N/A,,Scattered Clouds,170,2012-11-18 07:35:00
1:55 AM,54.5,43.7,67,30.14,10.0,South,8.1,-,N/A,,Clear,180,2012-11-18 07:55:00
2:15 AM,54.1,43.2,66,30.13,10.0,South,6.9,-,N/A,,Clear,190,2012-11-18 08:15:00
2:35 AM,53.1,42.8,68,30.13,10.0,South,8.1,-,N/A,,Clear,190,2012-11-18 08:35:00
2:55 AM,52.3,42.8,70,30.13,10.0,South,8.1,-,N/A,,Scattered Clouds,180,2012-11-18 08:55:00
3:15 AM,51.4,42.3,71,30.12,10.0,South,6.9,-,N/A,,Scattered Clouds,180,2012-11-18 09:15:00
3:35 AM,50.5,42.1,73,30.12,10.0,South,5.8,-,N/A,,Clear,180,2012-11-18 09:35:00
3:55 AM,50.7,42.3,73,30.12,10.0,South,6.9,-,N/A,,Clear,180,2012-11-18 09:55:00
4:15 AM,51.1,42.8,73,30.12,10.0,South,4.6,-,N/A,,Clear,190,2012-11-18 10:15:00
4:35 AM,51.8,43.0,72,30.12,10.0,SSW,6.9,-,N/A,,Clear,200,2012-11-18 10:35:00
4:55 AM,52.0,43.3,72,30.12,10.0,SSW,6.9,-,N/A,,Clear,200,2012-11-18 10:55:00
5:15 AM,51.8,43.3,73,30.12,10.0,South,4.6,-,N/A,,Clear,180,2012-11-18 11:15:00
5:35 AM,51.6,43.5,74,30.12,10.0,South,5.8,-,N/A,,Clear,180,2012-11-18 11:35:00
5:55 AM,51.1,43.5,75,30.12,10.0,SSE,5.8,-,N/A,,Clear,160,2012-11-18 11:55:00
6:15 AM,50.9,43.3,75,30.13,10.0,South,4.6,-,N/A,,Clear,180,2012-11-18 12:15:00
6:35 AM,49.5,42.8,78,30.13,10.0,SSE,3.5,-,N/A,,Clear,150,2012-11-18 12:35:00
6:55 AM,49.1,42.3,77,30.14,10.0,Calm,Calm,-,N/A,,Clear,0,2012-11-18 12:55:00
7:15 AM,49.1,42.4,78,30.14,10.0,SE,3.5,-,N/A,,Clear,130,2012-11-18 13:15:00
7:35 AM,48.7,42.4,79,30.13,10.0,SE,4.6,-,N/A,,Clear,140,2012-11-18 13:35:00
7:55 AM,50.0,42.8,76,30.14,10.0,South,4.6,-,N/A,,Scattered Clouds,170,2012-11-18 13:55:00
8:15 AM,50.9,43.3,75,30.14,10.0,SSE,5.8,-,N/A,,Overcast,160,2012-11-18 14:15:00
8:35 AM,52.9,44.6,73,30.15,10.0,South,9.2,-,N/A,,Overcast,190,2012-11-18 14:35:00
8:55 AM,53.6,44.8,72,30.14,10.0,South,5.8,-,N/A,,Overcast,190,2012-11-18 14:55:00
9:15 AM,54.3,45.3,72,30.15,10.0,SSW,8.1,-,N/A,,Overcast,200,2012-11-18 15:15:00
9:35 AM,54.5,46.2,74,30.16,10.0,SSW,11.5,16.1,N/A,,Light Drizzle,210,2012-11-18 15:35:00
9:55 AM,53.8,47.3,79,30.16,10.0,SSW,11.5,-,N/A,Rain,Light Rain,200,2012-11-18 15:55:00
10:15 AM,53.8,48.2,81,30.17,10.0,South,15.0,21.9,N/A,,Light Drizzle,190,2012-11-18 16:15:00
10:35 AM,53.2,49.1,86,30.18,10.0,SSW,9.2,-,N/A,Rain,Light Rain,200,2012-11-18 16:35:00
10:55 AM,53.6,50.2,88,30.18,10.0,SW,9.2,-,N/A,Rain,Light Rain,230,2012-11-18 16:55:00
11:15 AM,54.0,51.1,90,30.18,10.0,SSW,9.2,-,0.01,Rain,Light Rain,210,2012-11-18 17:15:00
11:35 AM,54.9,51.3,88,30.18,10.0,SW,10.4,-,0.01,,Overcast,230,2012-11-18 17:35:00
11:55 AM,55.8,51.6,86,30.18,10.0,WSW,8.1,-,0.01,,Overcast,240,2012-11-18 17:55:00
12:15 PM,57.2,52.3,84,30.17,10.0,SW,8.1,-,N/A,,Mostly Cloudy,230,2012-11-18 18:15:00
12:35 PM,58.3,52.2,80,30.17,10.0,West,6.9,-,N/A,,Mostly Cloudy,260,2012-11-18 18:35:00
12:55 PM,59.0,52.7,80,30.15,10.0,WSW,5.8,-,N/A,,Overcast,250,2012-11-18 18:55:00
1:15 PM,59.2,52.9,80,30.16,10.0,West,5.8,-,N/A,,Overcast,270,2012-11-18 19:15:00
1:35 PM,60.1,53.1,78,30.15,10.0,West,8.1,-,N/A,,Overcast,260,2012-11-18 19:35:00
1:55 PM,60.1,52.3,76,30.15,10.0,WNW,9.2,-,N/A,,Overcast,290,2012-11-18 19:55:00
2:15 PM,59.9,52.2,76,30.14,10.0,WNW,3.5,-,N/A,,Overcast,290,2012-11-18 20:15:00
2:35 PM,60.1,52.2,75,30.13,10.0,Calm,Calm,-,N/A,,Overcast,0,2012-11-18 20:35:00
2:55 PM,60.3,52.2,75,30.14,10.0,Calm,Calm,-,N/A,,Overcast,0,2012-11-18 20:55:00
3:15 PM,60.8,52.5,74,30.14,10.0,SW,3.5,-,N/A,,Overcast,220,2012-11-18 21:15:00
3:35 PM,61.2,52.7,74,30.15,10.0,West,4.6,-,N/A,,Overcast,260,2012-11-18 21:35:00
3:55 PM,61.2,52.3,73,30.15,10.0,Calm,Calm,-,N/A,,Mostly Cloudy,0,2012-11-18 21:55:00
4:15 PM,60.8,52.5,74,30.14,10.0,SW,3.5,-,N/A,Rain,Light Rain,230,2012-11-18 22:15:00
4:35 PM,60.3,53.4,78,30.14,10.0,South,3.5,-,N/A,Rain,Light Rain,190,2012-11-18 22:35:00
4:55 PM,60.1,53.6,79,30.14,10.0,South,3.5,-,N/A,,Overcast,170,2012-11-18 22:55:00
5:15 PM,60.1,54.0,80,30.15,10.0,South,3.5,-,N/A,,Overcast,180,2012-11-18 23:15:00
5:35 PM,59.5,53.6,81,30.15,10.0,SSW,3.5,-,N/A,,Overcast,200,2012-11-18 23:35:00
5:55 PM,58.8,54.0,84,30.15,10.0,SSW,3.5,-,N/A,,Overcast,210,2012-11-18 23:55:00
6:15 PM,58.5,53.6,84,30.15,10.0,South,3.5,-,N/A,,Overcast,180,2012-11-19 00:15:00
6:35 PM,58.1,53.4,84,30.16,10.0,South,4.6,-,N/A,,Overcast,190,2012-11-19 00:35:00
6:55 PM,58.1,53.6,85,30.17,10.0,South,3.5,-,N/A,,Overcast,190,2012-11-19 00:55:00
7:15 PM,57.4,52.5,84,30.17,10.0,South,4.6,-,N/A,,Overcast,190,2012-11-19 01:15:00
7:35 PM,57.7,52.2,82,30.16,10.0,South,5.8,-,N/A,,Overcast,170,2012-11-19 01:35:00
7:55 PM,58.1,50.9,77,30.17,10.0,South,5.8,-,N/A,,Overcast,180,2012-11-19 01:55:00
8:15 PM,56.3,50.4,80,30.16,10.0,South,5.8,-,N/A,,Scattered Clouds,180,2012-11-19 02:15:00
8:35 PM,56.3,49.6,78,30.17,10.0,South,6.9,-,N/A,,Clear,180,2012-11-19 02:35:00
8:55 PM,56.1,49.3,78,30.18,10.0,South,6.9,-,N/A,,Clear,190,2012-11-19 02:55:00
9:15 PM,55.0,49.1,80,30.18,10.0,SSW,8.1,-,N/A,,Clear,200,2012-11-19 03:15:00
9:35 PM,54.9,49.1,81,30.18,10.0,SSW,9.2,-,N/A,,Clear,200,2012-11-19 03:35:00
9:55 PM,54.7,49.1,81,30.18,10.0,SSW,8.1,-,N/A,,Clear,200,2012-11-19 03:55:00
10:35 PM,53.8,49.1,84,30.19,10.0,SSW,6.9,-,N/A,,Clear,200,2012-11-19 04:35:00
10:55 PM,53.2,48.7,85,30.18,10.0,SSW,9.2,-,N/A,,Clear,200,2012-11-19 04:55:00
11:15 PM,52.9,48.6,85,30.18,10.0,SSW,8.1,-,N/A,,Clear,210,2012-11-19 05:15:00
11:55 PM,52.2,48.7,88,30.18,10.0,SSW,9.2,-,N/A,,Clear,210,2012-11-19 05:55:00